Wind_Speed
36 36 37 38 38 38 37 37 37 37 36 35 33 32 31 30 29 29 29 29 28 28 28 28 28 28 29 28 28 29 29 29 29 29 28 28 28 28
36 36 36 37 39 40 39 38 38 37 37 36 35 34 32 31 31 30 29 28 29 28 28 28 28 29 29 30 30 29 28 27 27 28 28 28 28 28
38 37 37 36 37 37 37 38 38 38 37 37 36 34 33 32 32 31 29 28 29 28 28 27 27 28 29 29 29 28 27 27 27 27 27 27 27 27
37 37 36 37 37 37 38 37 37 37 37 36 35 33 33 32 31 30 30 30 30 29 28 29 28 28 27 27 27 26 26 27 27 26 26 26 26 26
37 37 36 36 36 37 37 37 36 36 36 36 34 33 32 31 30 30 30 30 31 30 29 30 29 28 27 27 26 26 25 25 24 24 23 23 23 23
35 36 36 36 35 35 36 35 35 35 35 34 33 32 31 30 30 29 29 29 28 28 28 27 27 27 26 25 25 23 22 21 21 21 21 20 20 21
32 33 33 34 34 34 34 34 35 35 34 33 33 32 30 29 28 28 28 27 27 27 27 26 25 24 23 22 21 20 20 19 19 19 18 18 18 19
28 30 31 30 30 32 33 32 32 32 32 31 30 29 28 27 27 27 27 26 26 25 25 24 22 21 20 20 19 18 17 17 16 16 16 16 16 17
23 25 28 28 28 29 30 28 28 29 29 28 27 26 25 25 25 25 24 24 23 23 22 21 20 19 18 17 16 15 15 14 14 14 14 14 14 15
20 22 23 24 25 26 26 25 24 25 25 25 25 24 24 23 23 22 22 22 22 21 19 18 17 16 15 14 13 13 12 12 12 12 12 12 13 14
17 19 21 22 22 23 23 22 22 22 22 22 22 22 22 22 22 21 21 21 20 18 17 17 16 14 13 12 12 11 11 11 10 10 10 11 11 12
13 15 17 19 20 21 20 20 20 20 20 20 20 20 21 20 20 20 19 19 18 17 16 15 13 12 12 11 10 10 9 9 9 9 9 10 10 10
11 13 15 17 18 19 20 20 19 19 19 19 19 19 19 19 19 18 18 17 16 15 14 13 12 12 11 9 9 8 8 8 8 8 9 9 9 9
9 11 14 15 16 17 18 19 19 19 19 19 18 18 18 18 18 17 16 15 14 13 12 12 12 11 9 9 8 7 7 7 7 8 8 8 9 9
7 10 13 14 16 16 16 17 18 19 19 19 18 17 17 17 16 15 14 14 13 12 12 11 10 10 9 8 7 7 6 6 7 7 7 8 8 9
8 10 12 14 15 15 15 16 17 18 17 18 18 17 16 16 16 15 14 13 13 12 11 10 9 9 8 7 7 6 6 6 6 6 7 7 8 8
11 12 13 14 14 14 15 16 17 18 17 17 17 17 17 16 16 15 13 13 12 11 10 9 9 8 8 7 7 7 6 6 6 6 7 7 7 8
12 13 14 14 14 14 15 15 16 16 17 17 17 16 15 15 14 14 13 12 11 10 9 9 8 8 8 7 7 7 7 7 7 7 7 8 8 9
13 14 14 14 14 14 15 15 15 16 16 16 15 14 14 13 13 12 12 11 10 9 9 8 8 8 7 7 7 7 7 7 8 8 9 9 9 10
13 13 13 13 13 13 14 14 14 15 15 15 14 14 13 13 12 11 11 10 9 9 8 8 8 7 7 8 8 8 9 9 9 9 10 10 11 11
12 12 12 12 12 13 13 14 15 14 14 14 14 13 12 12 11 10 9 9 8 8 8 7 7 7 7 8 8 9 10 10 10 10 11 11 12 12
11 11 11 11 11 11 12 13 13 13 13 13 13 12 12 11 10 9 8 8 8 7 7 7 7 7 8 9 9 10 10 11 11 11 12 13 13 14
9 9 9 10 10 10 11 11 12 12 12 12 11 11 11 10 9 8 8 7 7 7 7 7 7 8 8 9 10 11 12 12 13 13 14 15 16 17
Wind_Direction
231 233 233 233 233 234 233 233 235 235 236 238 240 240 241 243 246 250 252 257 260 264 269 272 273 273 275 276 278 280 280 282 284 286 289 291 292 292
229 230 231 232 232 233 234 235 234 235 236 238 239 239 241 243 246 249 253 255 258 264 269 270 272 273 275 276 278 278 279 281 283 287 289 290 291 292
228 229 229 230 231 231 231 233 234 235 236 237 238 240 242 245 248 249 252 255 258 262 266 269 271 273 274 276 276 276 278 281 284 285 287 290 292 293
227 228 230 230 231 231 231 232 232 234 234 235 237 239 241 245 247 249 253 255 257 260 264 267 268 271 272 274 274 276 278 280 281 284 286 289 290 292
229 229 229 229 229 229 229 231 233 233 234 236 238 240 243 245 247 251 254 256 258 262 264 264 264 266 269 271 273 274 276 279 282 285 287 290 291 293
230 231 232 231 233 232 233 234 233 232 234 234 236 239 242 244 246 250 254 257 259 261 262 262 262 264 266 269 270 273 276 278 282 285 288 291 293 295
229 230 231 232 232 232 233 233 231 231 232 234 237 238 241 243 246 249 252 255 257 259 260 259 259 260 262 265 268 271 273 277 281 284 288 292 295 298
229 230 232 232 231 230 230 229 229 230 232 234 236 237 240 243 245 247 249 250 253 255 256 256 256 256 258 262 265 267 271 275 280 284 288 292 296 301
226 226 228 229 229 228 228 227 227 228 228 229 231 234 236 238 240 242 244 245 249 251 251 251 252 252 253 257 260 265 268 273 278 283 288 292 297 304
222 222 223 225 226 224 223 224 224 224 224 226 227 229 231 234 236 238 240 241 241 240 242 243 245 246 248 251 256 260 265 271 277 284 290 295 301 307
220 219 219 221 220 220 219 218 218 220 220 221 221 225 228 228 228 230 233 233 233 231 232 235 238 241 241 245 251 257 263 269 276 283 291 298 303 309
217 215 214 214 213 212 212 213 213 213 214 215 218 221 222 221 221 222 223 223 224 224 227 228 230 234 238 243 249 255 261 267 274 282 289 295 302 310
208 208 207 204 203 205 207 206 206 206 207 209 209 211 213 214 212 211 210 213 216 219 222 223 225 229 233 239 246 253 258 266 274 283 289 296 303 310
191 193 192 193 194 196 199 201 202 202 202 201 203 205 203 202 200 201 203 206 211 215 218 218 219 221 226 234 243 250 258 267 277 285 291 297 302 308
165 171 175 177 179 183 188 191 195 197 196 194 194 195 193 192 191 194 200 204 206 208 208 209 212 217 224 232 239 247 257 266 275 282 287 294 301 309
139 152 160 164 166 172 177 179 183 184 186 186 185 186 186 184 186 191 195 197 199 201 202 204 209 214 221 228 235 245 256 266 274 282 290 295 303 310
126 135 146 152 157 162 165 169 171 172 172 175 177 180 182 184 185 189 191 192 194 197 201 206 212 219 225 231 239 248 257 265 275 285 292 298 304 310
117 128 138 145 147 152 157 161 164 166 168 170 173 177 180 183 183 184 186 189 194 199 205 212 219 225 229 236 242 248 256 265 276 285 291 297 302 306
111 120 130 137 141 146 151 155 159 162 165 168 170 173 176 178 178 180 184 188 194 200 208 216 222 226 229 235 241 250 260 269 276 284 289 293 298 303
109 118 126 133 136 143 149 151 155 159 161 164 166 169 171 173 176 178 183 188 194 201 209 216 220 224 231 239 248 257 266 272 277 283 287 291 296 301
107 114 122 129 134 138 145 150 153 155 157 161 166 169 171 175 178 182 186 191 196 202 208 213 218 229 241 249 257 264 268 272 277 282 287 291 295 297
107 114 122 128 133 138 143 149 154 157 160 164 168 172 174 177 179 183 189 194 198 203 209 219 232 244 252 258 263 267 271 273 276 282 287 290 294 296
109 118 126 133 139 143 147 151 155 158 161 165 169 173 177 181 187 193 198 201 205 211 222 235 246 255 261 266 268 271 273 275 278 282 286 290 293 295
Height
5804 5809 5813 5817 5821 5825 5829 5834 5838 5842 5845 5848 5851 5854 5856 5858 5859 5860 5861 5862 5863 5864 5864 5864 5864 5863 5863 5862 5862 5861 5860 5859 5858 5856 5854 5853 5851 5849
5795 5800 5804 5808 5812 5816 5821 5825 5829 5833 5836 5840 5843 5846 5848 5851 5852 5853 5855 5856 5857 5858 5858 5858 5858 5857 5856 5856 5855 5854 5853 5852 5851 5850 5848 5846 5844 5842
5786 5791 5795 5799 5803 5807 5811 5816 5820 5824 5828 5831 5834 5838 5841 5843 5845 5846 5848 5849 5850 5851 5851 5851 5851 5850 5850 5849 5849 5848 5847 5846 5845 5843 5842 5840 5838 5836
5777 5781 5785 5790 5794 5798 5803 5807 5811 5815 5819 5823 5826 5829 5832 5835 5837 5839 5841 5842 5843 5844 5844 5844 5844 5844 5844 5843 5842 5841 5841 5840 5839 5837 5836 5834 5832 5830
5768 5773 5777 5781 5785 5790 5794 5798 5802 5806 5811 5814 5818 5821 5824 5827 5830 5832 5833 5835 5836 5837 5837 5838 5838 5838 5837 5837 5836 5835 5835 5834 5833 5832 5830 5828 5826 5824
5760 5765 5769 5773 5777 5781 5786 5790 5794 5798 5802 5806 5810 5814 5817 5820 5822 5824 5826 5827 5829 5830 5830 5831 5831 5831 5831 5831 5831 5830 5829 5828 5827 5826 5825 5823 5821 5819
5753 5757 5761 5765 5769 5774 5778 5781 5785 5790 5794 5798 5802 5806 5809 5812 5815 5817 5819 5820 5821 5823 5824 5824 5825 5825 5825 5825 5825 5825 5824 5823 5823 5821 5820 5818 5816 5814
5746 5750 5754 5758 5762 5766 5770 5773 5778 5782 5786 5791 5795 5798 5802 5805 5808 5810 5812 5814 5815 5816 5817 5818 5819 5820 5820 5820 5820 5820 5819 5819 5818 5817 5815 5814 5812 5810
5740 5744 5748 5752 5755 5759 5762 5766 5771 5775 5779 5784 5788 5791 5795 5798 5801 5803 5806 5807 5809 5810 5812 5812 5814 5814 5815 5815 5815 5815 5815 5815 5814 5813 5812 5810 5808 5806
5735 5738 5742 5746 5749 5753 5757 5761 5765 5769 5773 5778 5781 5785 5789 5792 5795 5798 5800 5802 5803 5805 5807 5808 5809 5810 5810 5811 5811 5811 5811 5811 5810 5809 5808 5806 5805 5803
5730 5733 5737 5740 5744 5748 5752 5756 5760 5764 5768 5772 5776 5780 5783 5786 5789 5792 5794 5797 5799 5800 5803 5804 5805 5805 5806 5807 5808 5808 5808 5808 5807 5806 5805 5804 5802 5800
5727 5730 5732 5736 5739 5743 5748 5752 5756 5760 5764 5767 5771 5775 5778 5781 5784 5787 5790 5793 5795 5797 5799 5800 5801 5802 5803 5804 5804 5805 5805 5805 5804 5803 5802 5801 5799 5797
5725 5727 5730 5733 5736 5740 5744 5748 5752 5756 5760 5764 5767 5771 5774 5777 5780 5784 5787 5789 5792 5794 5796 5797 5798 5799 5800 5801 5802 5802 5802 5802 5801 5800 5799 5798 5797 5795
5723 5725 5728 5731 5734 5738 5742 5746 5750 5754 5757 5761 5765 5768 5772 5775 5778 5781 5784 5787 5789 5791 5793 5794 5796 5797 5798 5799 5799 5799 5799 5799 5798 5798 5797 5796 5794 5793
5723 5725 5727 5730 5734 5737 5741 5744 5748 5751 5755 5759 5763 5766 5770 5773 5776 5779 5782 5785 5786 5788 5790 5792 5793 5794 5796 5796 5797 5797 5797 5797 5796 5795 5795 5794 5792 5791
5724 5726 5728 5731 5734 5737 5741 5744 5747 5750 5754 5758 5762 5766 5769 5772 5775 5778 5781 5783 5785 5787 5788 5790 5791 5792 5793 5794 5795 5795 5795 5795 5794 5794 5793 5791 5790 5788
5728 5729 5731 5733 5736 5739 5742 5744 5747 5751 5754 5758 5762 5765 5768 5771 5774 5777 5779 5781 5784 5785 5787 5788 5789 5790 5791 5792 5793 5793 5793 5792 5792 5791 5790 5789 5788 5786
5732 5733 5735 5736 5739 5741 5743 5746 5749 5752 5755 5759 5762 5765 5768 5771 5774 5776 5778 5780 5782 5784 5785 5787 5788 5789 5790 5790 5791 5791 5790 5790 5790 5789 5788 5787 5786 5784
5737 5738 5739 5740 5742 5744 5746 5749 5751 5754 5757 5760 5763 5766 5768 5771 5773 5776 5778 5780 5781 5783 5784 5785 5786 5787 5788 5788 5789 5789 5788 5788 5787 5787 5786 5785 5783 5782
5743 5743 5744 5745 5746 5748 5749 5751 5754 5756 5759 5761 5764 5766 5768 5771 5773 5775 5777 5779 5780 5781 5782 5783 5784 5785 5785 5786 5786 5786 5786 5785 5785 5784 5783 5782 5780 5779
5747 5748 5748 5749 5750 5751 5752 5754 5756 5758 5760 5762 5765 5767 5769 5771 5773 5774 5776 5777 5779 5780 5781 5782 5782 5783 5783 5784 5784 5783 5783 5782 5782 5781 5780 5778 5777 5776
5752 5752 5752 5752 5753 5754 5755 5757 5758 5760 5762 5763 5765 5767 5769 5771 5772 5774 5775 5776 5777 5778 5779 5780 5780 5781 5781 5781 5781 5780 5780 5779 5778 5777 5776 5775 5774 5772
5756 5755 5755 5756 5756 5757 5758 5759 5760 5762 5763 5765 5766 5768 5769 5771 5772 5773 5774 5775 5776 5777 5777 5778 5778 5778 5778 5778 5777 5777 5776 5776 5775 5774 5773 5771 5769 5768